Вернуться в каталог

NOAA 16 DEB

АктивенSSO
NORAD 41523·DEBRIS·🇺🇸 United States

Запущен Sep 21, 2000 с Vandenberg Space Force Base

Loading…

Ближайшие Пролёты (ближайшие 24 часа)

TLE

СвежийSource: Space-Track

Эпоха: Sep 14, 2026, 04:39 UTC

1 41523U 00055MX  26257.19396866  .00002134  00000-0  88029-3 0  9995
2 41523  98.7136 338.6808 0011126 159.2108 200.9528 14.27841063537067

Отслеживайте NOAA 16 DEB в реальном времени с AllMySat

Download on the App Store